Theta_e
326 327 330 332 335 336 338 334 332 338 346 347 351 355 360 359 361 365 361 355 353 354 356 344 336 334 335 341 347 348 347 342 334 334 336 336 333 331 335 338 345 347 348 347 344 346 345 344 338
324 325 327 331 336 338 337 331 333 342 349 351 348 348 346 353 353 359 362 358 355 356 356 352 337 335 334 336 342 344 343 342 338 341 342 340 337 334 335 337 343 346 347 346 346 344 342 341 338
325 326 330 334 336 337 335 331 333 341 340 344 347 342 344 349 355 355 361 359 356 356 355 355 338 336 334 333 333 337 342 343 344 346 347 344 342 339 335 337 338 340 344 344 344 343 342 340 335
323 327 329 335 335 332 331 330 329 339 339 340 341 342 345 357 359 360 362 360 357 356 354 355 339 337 335 333 331 331 335 342 345 346 347 345 342 340 336 336 338 341 343 341 342 340 334 329 328
323 328 334 335 332 329 329 328 329 338 340 341 339 342 350 360 361 362 362 360 355 354 354 355 340 338 336 334 332 330 331 336 341 344 344 343 342 339 334 333 337 341 343 343 342 340 338 334 327
326 329 335 337 332 328 328 326 330 335 340 339 341 344 344 342 353 361 360 359 355 354 353 356 343 340 337 336 334 330 330 333 336 338 339 338 337 335 332 334 338 339 342 344 343 342 339 333 332
325 329 334 332 331 329 327 325 326 329 334 331 334 340 338 329 350 359 359 358 355 353 352 355 353 349 340 338 336 333 330 332 334 333 334 334 333 331 331 334 336 338 339 339 339 340 340 335 329
325 327 331 331 331 331 326 325 324 325 325 324 328 336 333 327 337 351 354 357 356 355 354 354 353 353 352 350 339 336 333 332 333 332 333 334 334 334 334 335 336 336 339 341 342 342 341 335 331
321 330 334 330 329 329 326 326 324 323 324 323 323 326 324 328 339 342 345 349 355 356 356 355 355 354 352 351 352 342 337 333 334 335 333 336 340 343 344 342 345 343 343 343 343 342 341 339 336
323 333 334 327 326 327 324 324 324 324 325 324 323 321 321 329 335 338 339 341 347 353 354 355 358 356 354 351 354 351 350 347 344 344 347 343 344 344 343 344 343 340 341 342 342 342 341 340 341
321 328 327 326 323 322 323 323 323 324 325 325 324 323 322 321 328 333 332 333 335 338 342 348 356 359 356 353 353 352 352 351 350 349 349 347 347 346 344 343 345 345 344 345 343 347 347 343 342
319 320 320 320 321 321 322 323 322 323 324 322 321 321 321 322 322 322 324 329 330 330 335 344 352 359 359 356 354 352 352 352 351 350 350 348 348 348 347 344 345 346 346 345 344 343 342 344 344
319 320 319 319 319 320 320 320 321 322 322 321 321 321 321 322 322 322 321 323 322 324 332 340 350 358 359 358 357 354 353 351 351 351 350 349 348 349 345 344 343 342 346 346 346 346 346 344 344
320 319 320 319 320 320 320 320 320 321 321 321 321 322 322 322 322 322 321 321 322 323 325 338 348 357 359 359 358 357 355 354 352 350 350 350 350 350 352 351 350 350 348 348 346 345 346 346 346
319 319 320 319 320 320 319 320 320 321 321 322 322 322 322 323 322 322 322 322 322 322 326 340 351 358 360 359 358 357 355 352 352 352 352 351 351 352 352 350 346 340 340 343 342 343 342 343 343
319 319 320 321 320 320 319 321 321 320 321 321 322 322 322 323 323 323 323 324 324 323 326 342 342 354 360 358 357 355 354 353 352 353 352 353 352 350 344 336 334 334 335 335 336 337 337 337 338
320 319 320 320 320 320 321 322 321 321 322 322 322 323 323 323 323 323 326 327 326 324 326 334 347 351 357 357 356 355 354 353 352 350 348 343 337 337 336 332 330 331 330 330 332 333 334 335 337
320 320 319 320 321 321 321 321 321 320 322 323 324 324 325 324 326 327 328 326 324 324 325 335 348 353 355 355 354 351 351 350 343 336 334 335 333 331 329 326 329 329 326 326 327 331 331 333 333
318 319 320 320 320 320 320 320 320 320 321 324 325 326 326 328 329 329 329 327 326 328 334 341 349 353 352 351 350 345 337 334 332 331 331 330 328 328 328 326 325 326 325 327 330 331 330 331 332
319 320 321 320 319 320 320 319 319 320 324 326 327 328 328 329 330 331 331 330 331 332 336 338 340 341 341 339 335 333 332 331 329 329 329 328 327 328 327 327 325 323 323 323 326 330 332 331 333
320 321 320 320 320 321 321 319 320 323 325 326 326 327 328 329 331 332 332 331 331 332 332 332 333 333 332 331 331 330 329 327 327 327 327 327 327 326 327 327 327 328 327 324 325 326 328 329 331
321 320 320 320 321 321 321 317 320 322 325 326 327 327 328 329 330 330 330 329 328 328 329 329 329 329 328 327 328 329 326 326 325 323 322 322 323 323 322 322 323 324 325 324 323 323 326 328 329
321 320 321 321 321 321 319 321 320 321 323 325 326 326 327 328 328 329 328 327 327 326 326 326 325 325 324 324 323 322 322 321 320 320 320 320 319 319 319 319 320 321 321 321 324 326 326 326 327
319 321 321 321 320 319 320 319 317 319 322 322 325 326 325 325 326 326 325 324 323 323 323 323 323 323 322 321 321 321 321 321 320 320 319 317 317 316 317 317 318 319 319 320 321 324 326 327 327
320 320 319 318 319 318 320 318 318 320 320 321 324 325 325 324 324 324 323 323 322 321 321 321 322 322 321 320 320 319 320 320 320 319 317 317 316 316 316 317 317 317 318 319 320 321 324 327 327
319 319 318 318 317 317 319 319 322 322 322 321 323 324 325 324 324 323 321 321 320 320 321 320 321 321 319 319 318 318 318 316 316 316 316 316 315 315 315 315 315 316 316 317 319 320 320 323 326
319 320 319 319 319 321 319 318 319 319 319 322 323 323 324 324 323 321 320 319 319 319 319 319 319 319 319 318 318 318 317 317 316 316 316 315 314 313 313 313 314 315 316 317 318 319 320 322 325
318 318 320 322 326 320 316 317 317 319 320 319 320 321 323 323 322 321 319 318 317 318 318 318 318 318 318 317 316 316 315 315 315 315 314 314 313 313 313 313 313 314 316 317 318 319 320 322 324
319 320 320 320 320 321 319 316 321 320 319 320 318 317 318 318 317 317 317 317 317 317 317 317 317 317 316 316 315 315 315 315 315 314 313 313 313 312 312 312 313 314 316 317 319 320 323 324 324
318 320 320 327 322 322 324 323 317 319 318 317 315 317 317 317 317 316 315 315 316 316 316 316 315 315 315 315 314 314 314 314 314 313 313 312 312 312 312 312 313 315 316 317 319 321 325 325 325
Wind_Speed
7 5 4 6 6 6 5 6 2 7 5 4 3 6 10 10 10 5 5 7 11 17 18 19 20 18 16 14 17 19 18 18 18 19 17 16 16 16 17 17 16 14 10 8 8 8 9 6 5
4 2 6 4 7 9 6 3 7 6 9 4 8 5 7 12 9 9 8 8 14 17 18 17 20 18 16 15 16 16 16 17 17 16 15 14 14 14 15 15 15 12 9 7 6 7 7 6 6
2 4 5 5 3 2 3 7 7 4 4 1 3 5 3 6 10 5 7 12 14 16 18 17 19 17 16 14 13 13 15 16 16 15 14 13 13 13 14 14 14 12 8 6 6 6 7 7 7
5 6 5 7 1 6 4 8 9 5 4 1 2 7 8 9 4 8 10 10 13 16 16 17 19 17 15 14 12 12 13 13 15 16 15 13 13 12 13 13 13 11 8 5 5 6 6 6 7
6 4 6 4 2 2 2 6 4 5 2 3 1 6 8 11 9 10 9 9 13 16 14 15 18 16 14 12 12 12 13 14 14 15 13 13 13 13 13 14 14 11 8 6 5 6 6 7 7
4 4 7 6 3 2 2 5 2 1 3 5 4 7 7 7 6 7 7 9 12 14 14 15 17 15 14 12 11 12 13 14 14 13 13 13 12 12 12 13 13 11 9 8 7 7 7 8 9
5 6 6 3 1 5 2 2 5 3 2 6 2 4 6 9 6 6 7 9 11 12 13 13 14 14 14 12 11 11 12 12 12 12 12 12 12 12 12 12 11 10 9 9 9 8 9 9 10
4 4 7 5 4 4 3 1 2 4 6 3 1 2 8 6 4 6 6 8 10 11 11 12 13 13 12 11 13 12 11 12 11 11 11 11 11 11 11 12 11 11 10 9 9 9 10 10 11
1 8 9 8 7 6 0 5 2 1 0 3 3 5 7 5 5 6 7 8 9 9 10 10 11 12 12 11 11 13 12 12 11 10 11 10 8 9 9 10 12 11 10 10 11 11 11 13 14
7 8 7 6 9 9 3 7 4 5 4 4 5 5 4 3 4 5 6 7 8 9 9 10 11 12 12 12 11 12 11 11 11 10 10 9 8 8 9 9 12 13 13 13 14 14 14 14 13
4 12 5 5 7 6 7 8 6 9 10 7 6 1 2 2 3 5 5 4 5 6 7 8 11 13 13 13 13 12 13 12 11 11 11 9 8 7 7 8 7 8 11 11 13 12 12 13 14
6 5 4 4 6 9 13 11 11 11 11 6 4 4 3 4 5 7 9 7 5 3 5 8 10 13 14 13 13 12 12 12 11 11 10 8 8 6 6 6 6 7 8 10 11 13 14 15 16
10 8 8 6 8 11 12 14 15 11 4 6 5 5 6 6 6 8 8 5 3 5 5 5 9 11 13 13 11 11 11 10 9 8 8 7 5 5 5 7 8 8 8 9 11 13 15 16 18
2 5 7 6 8 8 10 12 5 6 4 5 5 5 6 5 3 5 8 7 6 5 4 5 8 11 12 13 11 9 8 8 8 7 6 6 4 4 3 4 5 7 9 9 11 14 15 18 19
5 10 9 6 5 4 7 14 16 1 4 6 8 7 5 3 3 5 5 7 8 8 6 8 8 10 11 11 11 9 8 8 8 7 6 6 5 3 3 5 6 7 8 11 13 14 16 18 20
9 7 12 11 8 4 5 12 9 2 5 8 8 8 6 5 4 3 4 7 9 8 7 8 8 9 10 11 11 9 9 8 7 7 6 5 4 3 2 4 7 9 12 13 15 17 20 21 23
9 10 7 8 2 2 8 10 12 3 7 9 10 9 8 9 8 4 6 8 9 8 8 8 10 11 10 9 10 9 8 7 6 6 5 6 4 2 2 5 7 9 13 15 17 19 21 24 25
5 9 5 6 6 5 11 13 12 5 8 9 9 8 7 5 4 6 6 3 3 6 7 9 11 12 11 11 11 10 9 8 8 7 7 6 4 2 3 5 6 8 12 16 17 19 22 23 25
1 3 5 1 2 9 7 10 14 7 9 9 5 5 1 2 4 5 4 4 6 7 9 10 12 12 12 11 11 11 12 11 9 7 7 5 3 3 5 7 9 11 13 15 17 19 21 22 22
3 4 5 4 3 10 12 15 13 6 6 4 2 2 4 5 7 8 10 10 10 12 13 14 14 13 12 11 9 10 12 10 8 6 4 3 3 5 7 10 12 13 16 18 19 17 21 22 20
2 7 5 8 11 15 11 16 6 7 5 4 3 2 4 6 8 9 12 13 14 15 15 16 17 17 15 15 14 13 11 8 5 3 1 2 6 8 10 12 14 15 16 20 18 20 21 24 23
9 3 6 8 10 9 5 7 9 6 7 5 5 5 6 7 8 9 12 14 14 15 14 14 15 15 13 12 10 8 5 4 2 2 3 7 8 10 13 15 16 17 20 23 22 21 20 22 25
5 4 7 10 13 8 11 7 4 2 9 7 6 6 6 6 7 8 9 11 11 11 11 10 11 12 11 10 8 5 3 2 1 4 7 9 10 13 16 17 19 20 21 23 23 24 23 23 25
3 8 13 9 8 10 5 5 4 2 3 3 6 7 7 7 6 7 8 7 7 7 7 7 7 7 7 6 5 5 3 0 4 5 9 11 13 16 17 18 20 21 23 24 25 24 24 25 25
5 9 6 5 6 6 4 7 10 6 3 6 5 9 8 6 6 6 6 6 4 4 4 4 5 4 4 3 2 2 1 2 5 7 10 12 16 18 19 21 23 24 24 25 25 26 26 25 26
4 5 5 7 8 13 4 6 5 5 3 5 5 5 7 7 6 3 2 5 6 4 4 5 5 5 4 3 3 4 5 7 8 9 11 15 18 19 21 23 26 26 27 27 26 27 26 26 25
4 4 6 10 16 9 10 9 9 3 1 4 6 7 7 5 6 4 7 9 11 12 10 10 10 10 8 7 6 6 8 9 11 12 13 16 18 21 23 25 27 26 26 26 26 26 26 25 25
5 5 5 5 5 11 11 18 13 8 6 8 9 13 12 13 7 10 11 16 20 18 18 13 13 13 11 10 10 10 11 13 13 15 16 19 20 22 24 25 24 24 24 24 24 25 24 24 25
6 6 4 5 7 9 13 7 8 1 5 4 8 14 16 16 16 18 25 31 23 21 19 17 14 14 13 13 13 13 14 16 16 17 17 19 20 22 23 23 22 23 23 24 22 22 23 24 25
8 10 8 7 11 8 10 13 13 9 7 9 17 13 18 18 17 17 19 23 21 20 22 20 17 15 15 13 14 15 16 17 18 18 18 19 21 21 22 21 22 22 23 22 22 22 20 19 17
Wind_Direction
323 287 261 251 242 245 123 78 321 19 119 84 73 21 59 35 21 44 105 135 138 151 156 160 164 165 166 165 172 177 172 171 168 166 162 163 161 162 165 163 160 157 149 151 160 165 178 184 179
284 273 247 275 259 200 122 36 38 42 88 88 106 134 62 71 46 101 133 140 148 152 156 161 167 166 168 168 173 175 177 175 172 168 167 167 166 168 172 172 171 169 167 170 174 180 188 200 209
252 255 277 296 260 327 74 31 13 101 101 19 124 41 41 48 53 55 96 138 149 155 157 165 168 167 169 171 174 176 180 181 179 178 175 171 175 176 178 180 182 183 188 191 196 203 211 220 221
283 206 223 255 120 86 347 13 347 187 149 68 63 88 100 48 32 53 114 135 147 154 158 175 171 172 172 170 175 179 180 182 183 183 181 181 182 184 183 185 185 186 193 200 205 213 222 227 222
256 254 258 218 127 74 46 11 355 203 119 108 250 120 98 71 72 91 110 125 149 155 159 166 174 176 176 173 173 177 182 185 186 188 191 190 189 188 187 186 187 192 200 208 217 233 235 239 232
246 279 247 219 136 142 107 25 351 183 176 102 144 130 89 86 77 95 110 121 141 153 157 168 177 181 181 180 177 178 181 185 190 194 194 193 191 190 190 191 195 205 214 222 229 240 248 246 243
281 270 290 302 187 218 67 357 42 21 151 77 53 179 105 87 73 105 114 127 142 152 160 166 174 181 187 188 186 183 183 186 188 189 192 192 191 192 194 200 211 222 233 237 238 241 251 254 251
273 268 261 242 252 245 93 255 7 3 73 93 267 143 136 69 108 133 138 145 154 160 169 172 177 183 184 195 195 191 188 188 188 189 191 193 197 201 204 210 220 224 232 238 246 254 261 262 260
351 248 249 264 272 269 211 261 78 100 320 72 66 62 82 92 142 157 163 172 172 175 178 182 184 189 194 191 201 194 193 193 194 194 196 195 197 212 220 223 229 239 237 243 251 258 263 267 267
229 244 269 308 312 279 297 289 318 265 219 168 153 115 110 126 159 200 198 190 187 182 189 193 195 199 198 197 192 187 193 191 191 196 198 195 207 212 213 226 244 246 248 252 256 262 265 270 264
201 253 207 257 257 255 279 258 255 269 256 254 272 146 144 216 213 249 237 235 186 180 180 203 199 204 203 200 196 193 191 194 198 196 198 206 209 218 228 237 253 254 265 264 262 262 260 255 259
209 262 234 256 247 263 258 278 256 259 277 19 321 331 287 257 263 252 247 213 192 199 198 204 205 205 206 204 197 198 187 190 189 196 200 207 213 225 238 250 262 266 272 278 275 271 268 265 263
231 177 212 229 254 262 270 259 266 267 280 298 290 251 266 263 256 256 254 234 193 197 195 211 209 206 203 205 203 199 195 194 190 195 203 207 222 235 253 257 270 273 281 289 283 279 277 273 268
110 230 228 231 247 238 252 247 235 208 301 265 272 263 240 267 251 217 213 223 222 229 226 208 205 201 194 197 197 195 196 186 190 190 192 202 208 229 257 292 297 298 308 302 285 284 281 275 278
216 240 201 217 229 206 259 250 225 110 261 266 253 249 243 212 206 222 234 230 230 227 215 199 196 190 189 190 188 189 181 176 173 178 181 185 201 218 262 290 296 301 300 295 291 287 284 279 278
227 236 235 135 209 152 215 275 116 186 291 268 251 250 257 255 271 257 248 250 244 241 204 197 190 185 183 177 171 173 171 167 165 169 170 179 197 216 239 288 305 309 301 295 291 290 286 282 281
208 260 214 153 142 244 232 296 139 300 302 284 276 273 274 271 262 257 278 268 251 239 214 195 188 179 175 171 162 160 159 163 169 171 163 153 153 174 278 307 316 314 307 300 298 293 288 287 281
215 231 206 257 124 275 269 258 277 301 294 289 289 287 280 282 336 307 292 288 222 199 183 176 174 166 164 159 156 160 155 151 143 135 126 122 110 80 348 321 310 315 310 307 307 301 292 289 286
252 254 278 269 47 310 276 280 279 284 267 262 289 298 282 24 43 36 40 83 105 120 136 146 150 157 157 161 159 155 140 133 128 121 105 94 65 4 326 310 309 309 305 302 300 301 300 292 288
241 265 264 272 293 308 298 289 281 244 257 274 276 111 112 111 85 73 77 89 97 107 112 114 117 123 131 137 124 134 134 131 132 126 104 73 358 317 303 295 298 298 298 296 296 297 299 293 288
240 314 329 315 316 274 292 277 170 182 207 173 155 119 100 106 105 95 91 94 101 102 105 106 107 108 112 118 119 119 119 128 140 120 187 297 303 295 293 292 290 287 286 290 291 291 293 293 292
287 56 300 299 310 307 8 294 213 187 208 207 170 168 141 131 120 114 112 106 104 104 105 106 105 104 103 110 110 106 127 150 122 264 291 307 300 299 299 297 296 294 292 289 286 283 288 289 287
11 321 297 297 288 304 234 256 129 163 235 198 199 175 162 152 141 133 120 118 116 117 110 105 103 99 97 96 107 125 119 137 271 300 312 307 304 305 303 302 302 298 294 290 289 284 282 283 285
323 271 265 270 269 249 69 286 287 102 305 214 186 190 175 167 145 131 123 127 125 128 124 117 105 98 97 97 89 94 118 270 292 301 305 303 305 304 303 305 305 302 297 292 288 286 281 278 282
283 291 296 250 217 301 68 286 276 328 308 305 245 202 197 182 183 176 175 168 165 164 164 169 165 155 147 142 139 149 199 260 274 284 294 300 301 302 303 303 303 301 298 294 289 283 282 278 278
332 327 307 297 318 315 249 270 58 60 20 352 306 261 213 210 202 240 299 291 281 255 262 256 241 229 226 231 236 252 263 272 276 281 291 294 298 298 298 298 297 295 294 291 288 282 278 280 276
93 278 4 287 266 265 268 276 263 195 6 52 15 334 293 254 246 283 328 314 304 296 275 270 259 250 255 265 269 271 277 279 286 287 287 290 293 295 295 294 291 289 289 289 287 282 277 276 276
299 358 252 222 289 296 289 300 288 167 57 7 12 4 359 347 292 281 311 307 308 285 279 260 264 260 260 269 275 276 279 277 278 281 287 290 292 294 295 294 291 289 288 289 285 281 276 275 276
279 237 221 316 293 277 296 290 55 40 309 334 339 349 338 332 330 327 320 313 302 292 275 267 255 251 258 270 275 279 284 281 277 281 287 290 294 296 295 294 292 291 292 292 287 282 281 277 282
269 283 281 257 272 245 284 277 287 5 335 275 318 328 320 318 316 311 308 311 300 282 283 276 262 258 257 264 278 284 289 285 279 288 290 294 297 298 296 294 292 292 294 293 290 289 285 281 297